Overview Statistics Trail Chart Weather Telemetry Raw packets
 

This is the latest recevied telemetry packets stored in our database for station/object OE6CFD-1. If no packets are shown the sender has not sent any telemetry packets the latest 10 day(s).

Telemetry packets is used to share measurements like repeteater parameters, battery voltage, radiation readings (or any other measurements).

<< 1 2 3 4 >>
Time Press* Temp.in* Hum* QNH* Temp.out*
1788701935 969.3 hPa 29.5 C deg 0 % 1025.6 hPa 0 C deg
1788700123 969.5 hPa 29.5 C deg 0 % 1025.8 hPa 0 C deg
1788698299 969.8 hPa 29.3 C deg 0 % 1026.1 hPa 0 C deg
1788696486 969.9 hPa 28.7 C deg 0 % 1026.3 hPa 0 C deg
1788694670 970.1 hPa 28 C deg 0 % 1026.7 hPa 0 C deg
1788692859 970.4 hPa 26.4 C deg 0 % 1027.3 hPa 0 C deg
1788691042 970.4 hPa 26.1 C deg 0 % 1027.4 hPa 0 C deg
1788689226 970.5 hPa 24.9 C deg 0 % 1027.8 hPa 0 C deg
1788687409 971 hPa 24.1 C deg 0 % 1028.4 hPa 0 C deg
1788685598 971.2 hPa 23 C deg 0 % 1028.8 hPa 0 C deg
1788683783 971.3 hPa 22.4 C deg 0 % 1029.1 hPa 0 C deg
1788681977 971.2 hPa 21.7 C deg 0 % 1029.2 hPa 0 C deg
1788680151 971.2 hPa 20.5 C deg 0 % 1029.4 hPa 0 C deg
1788678335 971 hPa 19.2 C deg 0 % 1029.4 hPa 0 C deg
1788676521 970.9 hPa 18.3 C deg 0 % 1029.5 hPa 0 C deg
1788674733 970.6 hPa 17.1 C deg 0 % 1029.4 hPa 0 C deg
1788672889 970.5 hPa 15.4 C deg 0 % 1029.7 hPa 0 C deg
1788671077 970.3 hPa 14.4 C deg 0 % 1029.7 hPa 0 C deg
1788669262 970 hPa 14.9 C deg 0 % 1029.3 hPa 0 C deg
1788667445 969.7 hPa 15.9 C deg 0 % 1028.7 hPa 0 C deg
1788665632 969.5 hPa 15 C deg 0 % 1028.7 hPa 0 C deg
1788663816 969.4 hPa 15.4 C deg 0 % 1028.5 hPa 0 C deg
1788662002 969.3 hPa 15.4 C deg 0 % 1028.4 hPa 0 C deg
1788660197 969.3 hPa 15.5 C deg 0 % 1028.4 hPa 0 C deg
1788658369 968.9 hPa 15.9 C deg 0 % 1027.9 hPa 0 C deg
*Used Equation Coefficients:
Press: 0, 1, 0
Temp.in: 0, 1, 0
Hum: 0, 1, 0
QNH: 0, 1, 0
Temp.out: 0, 1, 0

  • The parameter names for the analog channels will be Value1, Value2, Value3 (up to Value5) if station has not sent a PARAM-packet that specifies the parameter names for each analog channel.
  • Each analog value is a decimal number between 000 and 255 (according to APRS specifications). The receiver use the telemetry equation coefficientsto to restore the original sensor values. If no EQNS-packet with equation coefficients is sent we will show the values as is (this corresponds to the equation coefficients a=0, b=1 and c=0).
    The sent equation coefficients is used in the equation: a * value2 + b * value + c.
  • The units for the analog values will not be shown if station has not sent a UNIT-packet specifying what unit's to use.
  • The parameter names for the digital bits will be Bit1, Bit2, Bit3 (up to Bit8) if station has not sent a PARAM-packet that specifies the parameter names for each digital bit.
  • All bit labels will be named "On" if station has not sent a UNIT-packet that specifies the label of each bit.
  • A bit is considered to be On when the bit is 1 if station has not sent a BITS-packet that specifies another "Bit sense" (a BITS-packet specify the state of the bits that match the BIT labels)